Dewpoint
28 24 22 20 19 19 21 23 20 20 25 30 28 28 28 25 25 25 26 27 34 35 35 36 37 37 36 36 34 34 33 34 34 32 31 31 31 31 32 29 29 29 29 28
19 17 17 13 14 16 23 21 22 24 25 29 28 27 25 25 26 25 26 26 32 35 34 36 36 36 35 35 34 33 32 32 33 31 30 32 31 31 30 29 29 27 27 27
19 18 21 13 14 8 14 21 21 21 22 26 27 26 23 26 26 26 26 26 27 34 34 35 34 35 34 33 34 33 32 32 32 31 30 30 30 30 27 27 27 28 28 28
19 21 19 15 14 15 7 14 9 23 19 14 23 20 22 25 25 25 25 25 25 28 34 34 34 34 34 34 33 32 31 30 30 30 30 29 29 29 26 27 28 27 28 28
23 19 20 18 16 18 17 19 15 10 12 15 18 17 20 25 25 25 25 25 26 28 34 34 35 34 34 32 32 32 31 30 31 29 29 29 27 29 27 27 26 27 28 28
15 14 14 16 18 15 17 14 16 15 9 7 8 18 19 22 24 25 25 26 27 32 34 35 35 33 32 32 31 30 30 30 30 29 29 28 25 26 25 26 25 26 28 28
13 13 14 15 15 16 13 14 15 11 14 13 18 19 23 24 27 25 26 27 28 34 34 34 34 31 31 30 30 29 30 29 29 29 29 27 26 26 25 25 25 25 26 27
13 11 14 18 18 14 13 11 15 7 12 11 20 22 23 26 26 26 26 28 31 33 34 33 32 31 31 30 29 28 28 28 28 28 27 26 26 26 26 25 25 26 26 28
19 15 11 12 13 8 15 8 14 13 17 10 19 24 25 24 25 26 26 28 32 33 32 32 31 31 29 30 28 27 27 27 26 26 25 25 25 25 25 25 26 27 27 27
17 13 13 15 9 9 9 13 10 16 11 8 15 21 22 23 23 26 27 29 33 32 32 31 31 30 29 28 29 28 26 24 23 24 24 23 24 25 25 26 25 26 27 28
17 16 15 10 8 6 12 9 13 14 19 8 9 13 26 24 24 26 28 31 32 32 31 31 30 30 29 28 28 25 22 21 21 23 23 24 25 25 25 25 26 26 28 28
24 24 14 11 15 10 8 10 16 17 12 20 19 19 28 27 25 28 29 31 31 31 30 30 29 29 28 28 23 21 22 22 22 23 23 23 24 24 24 24 25 27 27 29
19 21 16 12 17 19 8 6 8 20 20 13 14 13 27 28 27 28 30 31 31 30 30 29 29 28 28 24 22 20 21 22 22 22 22 22 23 23 23 24 25 26 27 28
32 25 23 18 19 20 18 13 10 15 15 14 16 19 27 26 26 28 30 30 30 30 29 29 28 28 24 22 21 22 22 22 22 22 21 21 22 22 23 24 25 26 27 27
29 24 27 24 23 23 19 12 10 9 12 12 14 14 27 26 27 29 31 30 29 28 28 28 27 26 21 21 21 21 22 23 23 23 22 22 23 23 23 23 24 25 25 26
29 24 27 23 24 21 20 19 14 15 16 15 15 23 28 30 29 29 29 29 28 28 28 27 27 22 21 22 21 21 22 23 23 23 23 24 24 22 22 23 24 22 23 24
27 28 27 21 27 24 21 24 22 18 16 14 13 21 27 26 26 27 28 28 27 27 27 27 26 23 23 22 21 21 22 23 22 23 23 23 23 21 21 21 20 19 21 21
30 30 29 26 25 16 24 24 17 16 16 19 25 26 26 26 28 28 28 28 28 27 28 28 26 25 24 22 22 21 21 22 23 22 22 22 22 20 19 17 17 17 19 19
33 31 29 25 26 23 19 18 18 16 15 23 26 25 26 28 29 29 29 29 29 29 29 28 28 26 23 23 22 20 21 22 22 22 21 22 21 17 17 14 14 14 16 14
31 35 30 27 21 17 22 19 21 18 14 24 25 26 26 27 23 27 30 30 29 29 28 28 26 25 24 22 21 21 21 21 21 22 22 22 23 17 17 17 14 13 13 12
27 28 28 26 24 26 29 26 22 16 19 26 26 27 27 26 28 30 30 28 28 27 27 27 23 22 22 23 22 21 21 21 22 23 23 23 22 16 16 16 14 14 13 12
27 28 28 29 25 22 28 21 18 25 29 32 33 33 32 31 30 30 28 27 27 28 28 23 21 21 23 23 22 21 21 23 24 24 22 23 20 16 15 16 16 14 14 12
26 30 29 29 28 30 28 28 32 29 30 32 34 34 32 31 30 29 28 28 28 28 27 21 20 21 22 21 19 19 21 23 24 22 19 21 19 18 17 16 16 16 14 13
30 33 31 29 28 29 32 31 30 30 31 33 35 34 33 31 29 29 29 28 28 28 25 22 22 21 21 21 21 22 21 22 21 17 20 18 17 16 17 17 17 18 14 15
30 28 28 27 30 31 30 31 31 32 35 34 35 35 33 31 30 29 29 28 28 25 23 23 22 21 20 20 19 21 23 20 19 17 16 15 16 16 15 16 18 21 17 17
28 28 28 27 31 33 32 33 33 32 33 33 35 34 32 31 30 29 29 29 25 23 21 20 21 19 15 18 16 20 19 14 14 14 14 15 14 15 15 16 16 19 19 18
Lifted_Index
6 5 6 6 7 8 8 7 7 8 9 9 8 7 7 8 8 8 8 9 9 10 10 11 12 13 14 14 15 16 17 18 18 19 19 19 19 19 20 20 20 20 20 20
5 5 6 6 7 7 7 7 6 7 8 8 8 7 7 8 8 8 8 9 9 9 10 11 12 13 13 14 14 16 17 18 19 19 20 20 20 20 20 20 20 20 20 20
5 5 6 6 7 7 6 6 6 6 7 7 7 7 7 8 8 8 8 9 9 9 9 10 11 12 13 13 14 16 17 18 19 20 21 21 20 20 20 20 20 20 20 20
5 6 6 6 6 6 6 6 6 6 6 6 7 6 7 7 7 8 8 8 8 8 8 9 10 12 12 13 14 16 17 18 20 21 21 21 21 20 20 20 20 20 20 20
6 6 6 6 6 6 6 6 7 7 6 5 5 6 6 6 7 7 8 8 8 8 8 9 10 12 12 13 14 16 18 19 20 21 22 21 21 21 21 21 20 20 20 19
6 6 7 7 7 7 7 6 6 5 5 4 5 5 5 6 6 7 7 7 7 7 8 9 10 11 12 13 15 17 18 19 20 21 21 21 21 21 21 21 20 20 19 19
5 5 6 7 7 7 7 5 4 3 2 3 4 4 5 6 6 7 7 7 7 7 8 9 10 11 12 14 16 17 18 19 20 20 21 21 21 21 21 21 20 20 19 18
3 4 6 7 7 7 6 5 3 2 1 2 3 4 5 6 6 6 6 7 7 7 8 9 10 11 13 14 16 17 18 18 19 20 21 21 21 21 21 21 20 19 18 18
3 3 5 7 7 7 6 5 4 3 2 2 3 3 4 5 6 6 6 6 6 7 8 10 11 12 13 15 16 17 18 19 20 21 21 21 21 21 21 20 20 19 18 18
4 4 5 7 7 7 6 5 5 4 2 1 2 3 4 5 6 6 6 6 6 7 8 10 11 12 14 15 16 17 18 19 20 21 21 21 21 21 21 20 19 18 18 17
5 4 4 6 6 6 6 5 5 4 2 2 2 3 4 6 6 6 6 6 6 7 9 10 11 13 14 16 16 17 18 19 20 21 21 21 21 21 21 20 19 18 17 17
5 4 4 4 6 6 6 5 5 4 3 3 2 3 5 7 7 7 6 6 7 8 9 10 11 13 15 16 16 17 19 19 20 21 21 21 21 21 20 19 18 17 17 16
5 4 3 3 5 6 6 5 5 4 4 3 3 4 6 7 7 7 7 7 7 8 9 11 12 13 15 15 16 17 19 19 20 21 21 21 21 20 19 18 17 17 16 16
5 4 3 3 4 5 5 5 5 5 4 3 3 5 6 7 7 7 7 7 7 8 10 11 12 13 15 16 17 18 19 19 20 20 20 20 20 20 19 18 17 16 16 16
5 4 4 4 5 5 5 5 5 5 4 4 4 5 6 7 7 7 7 7 8 9 10 11 12 13 15 16 17 18 18 19 19 20 20 20 20 20 18 17 17 16 16 16
4 4 4 4 5 5 4 4 4 5 5 5 5 5 6 7 7 7 7 8 9 10 10 11 12 13 15 16 17 17 18 18 19 20 20 20 20 19 18 17 17 16 16 16
4 4 3 3 4 4 4 4 4 5 5 5 6 6 7 7 7 7 8 9 9 10 10 11 12 14 15 16 16 17 17 18 19 20 20 20 19 19 18 17 16 16 15 15
4 4 3 3 3 3 4 5 5 5 6 6 7 7 8 8 8 8 8 9 9 10 10 11 13 14 15 16 17 17 17 18 19 20 20 19 19 18 17 17 16 16 16 15
4 4 3 2 2 3 4 5 5 5 6 7 8 8 8 8 8 8 8 9 9 10 10 12 14 15 16 16 16 17 18 19 19 19 19 19 18 18 17 17 16 16 16 16
3 3 2 2 2 3 4 5 6 5 5 6 7 8 8 8 8 8 8 9 9 10 11 13 14 15 15 16 16 17 18 19 19 19 19 18 18 17 17 17 17 17 16 16
2 2 2 2 2 3 5 5 5 5 5 6 7 8 8 8 8 8 8 9 10 11 12 13 14 15 15 16 17 18 18 18 19 19 18 18 17 17 17 17 17 17 16 16
1 1 1 2 2 4 5 5 5 5 6 7 8 8 9 8 8 8 8 9 10 11 12 13 14 15 15 16 17 18 18 18 19 18 18 17 17 17 17 17 16 16 16 15
2 2 2 2 3 4 5 6 6 6 7 8 8 8 8 8 8 8 9 9 10 11 12 13 14 14 15 16 18 18 18 18 18 18 17 17 17 17 17 16 16 16 15 14
2 3 2 3 4 4 5 6 7 8 8 8 9 9 8 8 9 9 9 10 10 11 12 13 14 14 15 16 18 18 18 18 18 17 17 16 16 16 16 16 16 16 15 14
3 3 3 4 4 4 5 7 8 8 8 8 9 9 9 9 9 9 10 10 10 11 12 13 14 14 15 17 18 18 18 18 18 17 16 16 16 16 16 16 16 16 16 16
3 3 4 4 4 4 5 7 8 8 8 8 8 9 9 9 10 10 10 10 10 11 12 13 14 14 15 17 18 18 19 18 17 17 16 16 16 16 16 16 16 16 17 17